Wind_Speed
7 6 7 8 10 11 11 10 7 5 4 5 6 7 7 6 5 4 4 4 4 4 4 4 3 3 3 4 5 6 7 8 9 10 10 11 13 14 15 16 17 19 20 22 23 23 24 23 23 23 23 23 23 23 22 22 22 21 21 20 20 20 20 19 19 19 19 19 19
8 8 7 7 8 9 9 8 6 6 6 7 8 8 9 8 7 6 6 5 5 5 5 5 4 3 3 4 4 5 5 7 8 8 9 10 11 12 13 14 14 15 16 17 18 19 19 20 20 20 20 21 21 21 22 22 21 21 21 21 21 21 20 20 20 20 20 20 20
10 10 9 8 8 8 8 7 6 7 8 10 10 10 10 10 9 8 8 7 7 7 6 6 5 5 4 4 4 3 4 5 5 6 8 9 10 11 12 12 13 13 13 14 14 15 15 15 16 16 17 17 18 19 19 20 20 20 20 20 20 20 20 20 21 20 20 20 20
10 11 11 11 10 9 8 8 8 9 10 11 11 11 11 10 10 9 8 8 8 8 8 8 7 6 5 4 4 3 3 3 4 5 5 6 8 9 11 11 12 12 12 12 12 12 12 12 13 13 14 14 15 16 17 17 18 18 18 19 19 19 19 20 20 20 20 20 20
11 12 13 13 13 12 11 10 11 12 12 12 12 12 11 11 10 10 9 9 9 9 9 8 8 7 6 5 4 4 3 3 3 3 3 4 5 6 8 10 11 11 11 12 12 12 12 11 11 12 12 12 13 13 14 14 15 15 16 17 17 17 18 18 19 19 19 19 19
11 13 13 14 15 15 14 13 13 14 14 14 13 13 13 12 12 12 11 11 10 10 9 9 9 8 7 6 5 5 4 3 3 3 2 2 3 4 5 7 8 10 11 11 12 12 12 12 12 12 12 12 12 12 12 13 13 13 14 14 15 15 15 16 17 17 18 18 18
10 12 14 15 16 16 16 15 15 14 14 14 14 14 14 13 13 13 13 12 11 11 10 10 9 9 8 7 6 6 5 4 4 3 2 2 2 3 4 5 6 8 9 10 11 12 13 13 13 13 13 13 13 13 13 13 13 13 13 13 13 14 14 15 15 16 16 17 17
9 11 13 14 15 16 16 15 15 14 14 13 13 13 13 13 13 13 13 12 12 12 12 11 10 9 8 7 7 6 6 5 5 4 3 2 2 3 3 4 6 7 8 9 11 12 13 14 14 15 15 14 14 14 14 14 14 13 13 13 13 13 13 14 14 15 15 16 16
7 9 11 12 13 14 14 14 14 13 13 12 12 12 12 12 12 12 12 13 13 12 12 12 11 10 9 8 7 6 6 5 5 5 4 4 3 4 4 5 6 7 9 10 11 12 13 14 15 15 16 16 16 15 15 15 15 15 14 14 13 13 13 14 14 15 15 15 16
6 7 9 10 11 12 13 13 12 12 11 11 11 11 11 11 12 12 12 12 12 12 12 12 11 10 9 8 7 6 6 6 6 6 6 5 5 5 6 7 8 9 10 11 11 12 12 13 14 15 16 16 16 16 16 16 16 16 16 15 15 14 14 14 15 15 15 15 16
5 6 7 8 9 10 11 11 10 10 10 10 10 10 11 11 11 11 11 11 12 12 12 11 11 10 9 8 7 7 7 7 7 7 7 7 7 8 8 9 10 11 11 12 12 12 12 13 13 14 15 16 16 16 17 17 17 16 16 16 16 15 15 16 16 16 16 16 16
5 5 5 6 7 8 9 9 9 9 9 9 9 9 9 9 9 9 10 10 10 10 10 10 10 9 9 8 8 8 7 7 7 8 8 8 8 9 9 10 11 12 12 13 12 12 12 12 12 13 14 14 15 15 16 16 16 16 16 16 16 16 16 16 17 17 17 17 17
5 5 5 5 6 7 7 8 8 8 8 8 8 8 8 8 8 8 8 8 8 8 9 9 9 9 8 8 8 8 8 8 8 8 8 8 8 9 9 10 11 11 12 13 12 12 12 12 12 12 12 12 13 14 14 15 15 15 15 15 15 15 16 16 17 18 18 18 18
5 5 5 5 6 6 6 7 7 7 7 7 7 7 7 7 7 6 7 7 7 7 8 8 8 8 8 8 8 8 8 8 8 8 8 8 8 8 9 9 10 11 11 12 12 12 12 12 12 12 11 11 11 12 13 13 13 14 14 14 14 14 15 16 18 18 18 18 19
6 5 5 5 6 6 6 7 7 7 7 7 7 7 7 6 6 6 6 7 7 7 8 8 8 8 8 9 9 9 8 8 8 8 8 8 8 8 8 8 9 9 10 11 11 11 12 12 12 12 12 11 11 11 12 12 13 13 14 14 14 14 15 17 18 18 18 18 18
6 5 5 5 5 6 6 7 7 7 6 6 6 6 6 6 6 6 7 7 7 8 8 8 8 8 8 9 9 9 9 9 9 8 8 8 8 8 8 8 8 8 9 9 10 10 11 11 12 11 12 11 11 11 11 12 12 13 14 15 15 16 16 16 17 17 17 17 17
6 5 5 5 5 6 6 7 7 7 7 6 6 6 6 6 7 7 7 7 8 8 8 8 8 8 8 9 9 9 9 9 9 9 8 8 8 8 8 8 8 8 8 8 8 8 9 10 10 11 11 11 11 11 11 11 11 12 13 14 15 15 15 14 14 14 14 15 15
7 6 5 5 5 5 6 6 6 6 7 6 6 6 6 6 7 7 8 8 8 8 8 8 8 8 8 8 9 9 9 9 9 8 8 8 8 8 8 9 8 8 8 8 8 7 7 8 9 9 9 10 10 10 11 11 10 10 11 12 13 14 13 13 12 13 13 14 14
7 6 6 5 5 5 5 6 6 6 6 6 6 5 5 6 6 7 8 8 8 8 8 7 8 8 8 8 8 8 9 8 8 8 8 8 8 9 9 9 9 9 9 9 8 8 7 7 7 8 8 9 9 10 10 10 10 10 10 11 12 14 14 14 14 14 14 15 15
8 7 6 6 5 5 5 5 6 6 6 6 6 5 5 5 6 6 7 7 7 7 7 7 7 7 7 8 8 8 8 8 8 8 8 8 8 9 9 10 10 10 10 9 9 8 8 7 7 8 8 9 9 10 10 10 10 10 10 11 13 14 15 15 15 15 15 15 15
9 8 7 7 6 6 6 6 6 6 6 6 6 5 5 5 5 6 6 6 6 7 7 7 7 7 7 7 7 7 7 7 7 7 8 8 8 9 9 10 10 10 10 10 9 9 8 8 8 8 9 10 10 10 10 10 10 11 11 12 13 14 15 15 15 15 15 15 15
10 9 8 8 7 7 7 6 6 6 6 6 6 6 5 5 5 5 5 6 6 6 6 6 6 6 6 6 7 7 7 7 7 7 7 8 8 9 9 9 10 10 10 10 10 9 9 9 9 9 10 10 10 11 11 11 11 11 11 12 13 14 14 15 15 15 15 15 15
11 10 9 9 8 8 7 7 7 7 7 7 7 6 6 6 5 5 5 5 5 5 5 6 6 6 6 6 6 6 7 7 7 7 7 8 8 8 9 9 9 10 10 10 10 10 10 10 10 10 10 10 11 11 11 11 11 11 11 12 12 13 13 14 14 14 14 14 14
12 11 11 10 9 9 8 8 7 7 7 7 7 7 7 6 6 6 5 5 5 5 5 5 5 5 5 5 6 6 6 7 7 7 7 8 8 8 8 9 9 9 10 10 10 10 10 10 10 10 10 10 11 11 11 11 11 11 11 11 12 12 12 13 13 13 13 13 14
13 13 12 11 10 10 9 8 8 7 7 7 7 7 7 7 7 6 6 6 5 5 5 5 4 4 4 5 5 6 6 6 7 7 7 8 8 8 8 8 9 9 9 9 9 10 10 10 9 10 10 10 10 10 10 10 11 11 11 11 11 12 11 12 12 12 12 13 14
14 14 13 12 11 11 10 9 9 8 8 8 8 8 7 7 7 7 7 6 6 5 5 4 4 4 4 4 5 5 6 6 7 7 7 7 7 7 8 8 8 8 9 9 9 9 9 9 9 9 10 10 10 10 10 10 10 11 11 11 11 11 11 11 11 11 12 13 14
15 15 14 13 13 12 11 10 10 9 9 8 8 8 8 8 8 8 7 7 7 6 5 4 4 3 3 3 4 5 6 6 7 7 7 7 7 7 7 7 8 8 8 8 9 9 9 9 9 9 9 10 10 10 10 10 10 11 11 11 11 10 10 10 10 11 12 13 14
16 16 15 14 14 13 12 11 11 10 10 9 9 8 8 8 8 8 8 8 7 7 6 5 4 4 4 4 4 5 6 7 7 7 8 7 7 7 7 7 7 8 8 9 9 9 9 9 9 9 9 10 10 10 10 10 10 10 10 10 10 10 10 10 10 11 12 13 14
17 16 16 15 15 14 13 12 12 11 10 10 9 9 9 9 9 9 9 8 8 7 6 6 5 5 4 4 4 5 6 7 8 8 8 8 7 7 7 7 8 8 9 9 9 9 10 9 9 9 10 10 10 10 10 10 10 10 9 9 9 9 10 10 10 11 12 13 14
18 17 17 16 16 15 14 13 12 12 11 11 11 10 10 9 9 9 9 9 8 8 8 7 7 6 5 5 5 6 6 7 8 8 8 8 8 8 8 8 8 9 9 10 10 10 10 10 10 10 10 10 10 10 10 10 10 9 9 8 8 9 9 10 11 11 12 13 14
18 18 18 17 17 16 15 14 14 13 13 12 12 11 11 10 10 10 9 9 9 9 8 8 7 7 6 6 6 6 7 8 8 9 9 9 9 8 8 8 9 9 10 10 10 10 10 10 10 10 10 10 10 10 10 9 9 9 8 8 8 9 10 11 11 12 12 13 13
19 19 19 18 18 17 16 15 15 14 14 13 13 12 12 11 11 10 10 9 9 9 9 8 8 7 7 7 7 7 8 8 9 10 10 10 10 9 9 9 9 10 10 11 10 10 10 10 10 10 10 10 10 9 9 9 9 9 8 8 8 9 10 11 12 12 13 13 13
20 20 20 19 18 18 17 16 16 15 15 14 14 13 13 12 11 11 11 10 10 9 9 8 8 8 8 8 8 8 9 9 9 10 11 11 11 10 10 10 10 10 10 10 10 10 10 10 10 10 10 10 10 9 9 9 9 9 9 9 9 9 10 11 12 13 13 13 13
21 21 20 20 19 18 18 17 17 17 16 16 15 14 14 13 13 12 11 11 10 10 9 9 9 9 9 9 9 9 9 10 10 10 11 12 12 12 11 10 10 10 10 10 10 9 10 10 11 11 11 10 10 10 9 9 9 9 9 9 9 10 11 12 13 14 14 14 14
22 22 21 20 20 19 19 18 18 18 17 17 16 16 15 14 14 13 12 11 11 10 10 10 10 10 10 10 10 10 10 10 10 11 11 12 12 13 12 11 11 11 11 10 10 9 9 10 11 11 11 11 11 10 10 10 9 9 9 9 10 10 11 12 13 14 15 15 15
22 22 22 21 20 20 20 19 19 19 18 18 17 16 16 15 14 14 13 12 12 12 11 10 10 10 10 10 10 10 10 10 10 11 11 12 13 13 13 13 12 12 11 11 11 10 10 10 10 11 12 12 11 11 11 10 10 10 10 10 10 11 11 12 13 14 15 15 15
23 22 22 22 21 21 20 20 20 20 19 18 18 17 16 16 15 15 14 14 13 13 12 11 11 10 10 9 9 9 10 10 10 11 11 12 13 14 14 14 14 13 13 13 13 11 11 11 11 12 12 12 12 12 11 11 11 11 11 11 11 11 12 13 14 14 15 15 16
23 23 22 22 22 21 21 21 21 20 20 19 18 17 17 16 16 16 15 15 14 14 13 12 11 11 10 9 9 9 10 10 11 11 11 12 13 14 14 15 15 14 14 14 14 13 11 12 13 13 12 12 12 12 12 12 12 11 11 11 12 12 13 13 14 15 15 16 16
23 23 23 23 22 22 22 21 21 20 20 19 18 18 17 17 17 16 16 16 15 14 13 13 12 11 10 10 10 10 10 10 11 11 11 12 13 14 15 15 16 16 16 15 15 14 13 13 15 15 13 13 13 13 13 13 12 12 12 12 12 13 13 13 14 15 16 16 17
23 23 23 23 23 22 22 22 21 20 19 19 18 18 18 17 17 17 17 16 16 15 14 13 12 12 11 11 10 10 10 11 11 11 12 12 13 14 15 15 16 17 17 17 17 15 14 14 16 16 15 14 14 14 14 14 13 13 13 13 13 13 14 14 14 15 16 16 17
23 23 23 23 23 23 22 22 21 20 20 19 19 18 18 17 17 17 17 17 17 16 15 14 13 13 12 12 12 11 11 11 11 12 12 12 13 13 14 15 16 17 18 19 18 17 16 15 16 16 16 15 15 15 15 15 14 14 14 14 14 14 14 14 15 15 16 16 17
Wind_Direction
216 228 230 226 228 231 233 233 235 248 266 272 275 278 282 288 294 299 301 300 294 290 286 286 288 290 285 276 266 260 257 255 251 246 240 236 235 235 237 238 240 240 241 241 241 241 241 240 239 238 237 237 236 236 236 235 234 233 232 231 230 228 227 227 226 227 227 228 228
217 229 236 235 231 229 228 229 238 255 265 264 266 270 277 281 284 287 290 292 290 287 285 283 285 287 287 280 271 263 258 256 254 250 246 242 239 238 238 239 241 242 243 244 244 244 244 243 242 241 240 238 237 237 237 236 235 235 234 233 232 230 229 229 229 228 229 230 231
219 228 237 242 241 234 230 232 248 264 269 266 262 264 268 273 276 278 281 284 285 283 280 280 281 283 284 282 277 269 263 257 253 249 245 242 240 239 239 239 240 241 243 244 244 244 244 243 242 240 239 238 238 237 237 236 235 235 235 234 233 231 231 230 230 230 231 232 233
222 227 234 242 247 247 241 240 249 258 261 261 259 259 261 264 267 269 271 275 277 276 276 276 277 278 280 283 286 286 280 269 260 252 244 239 237 236 237 237 237 239 240 242 243 243 243 242 241 240 239 238 237 236 236 235 234 234 233 233 232 231 231 230 230 231 231 232 233
223 226 230 236 243 247 247 244 245 247 250 253 254 254 256 257 258 259 261 264 267 268 270 271 273 275 279 284 289 293 292 286 277 266 255 244 236 233 233 234 236 237 238 240 241 243 243 243 242 241 240 240 238 236 235 234 232 232 231 231 231 230 229 229 229 229 229 230 230
224 226 228 232 238 243 246 245 245 245 247 249 250 251 253 254 255 255 256 257 259 260 262 264 267 271 275 280 285 289 291 291 288 281 272 256 243 236 233 233 235 237 239 241 242 244 245 245 244 244 243 242 240 239 237 235 233 231 230 229 229 227 226 226 226 226 226 227 228
227 228 231 233 237 242 246 247 246 246 247 248 249 251 253 254 254 254 254 254 254 255 256 257 260 263 267 271 277 283 288 291 291 289 280 263 248 238 235 235 239 241 243 245 246 247 247 247 246 245 244 243 242 241 240 239 236 234 231 228 226 224 222 222 222 223 223 224 225
232 232 234 236 239 243 247 248 248 247 247 247 249 251 253 254 254 253 253 252 253 253 253 254 255 255 256 260 267 274 282 287 289 289 284 272 251 237 235 240 247 249 250 251 251 250 249 248 247 246 245 244 243 242 242 241 239 237 233 229 226 222 220 219 219 219 219 221 222
237 235 237 239 241 244 246 247 248 247 247 247 248 249 251 252 252 252 252 252 252 252 252 253 252 251 250 251 256 263 271 277 281 283 283 276 264 252 248 251 255 257 259 258 256 254 252 249 247 245 244 243 241 241 241 241 240 239 236 232 228 224 220 218 217 217 217 218 220
242 238 239 241 243 244 246 247 247 247 247 247 246 246 247 248 247 247 248 249 250 250 251 251 249 248 247 247 250 255 261 265 269 272 274 274 271 267 265 265 265 265 265 263 260 257 255 251 247 244 242 241 239 239 240 240 240 239 237 235 231 228 225 222 220 219 219 220 221
251 243 240 240 242 244 245 245 245 245 245 245 244 244 244 243 243 243 243 244 246 247 247 246 245 245 246 247 249 252 255 259 260 262 264 266 267 268 268 268 268 267 267 265 262 259 255 251 247 243 241 239 237 236 237 238 238 238 237 236 234 231 230 228 226 225 224 225 226
256 247 241 238 238 240 241 241 242 242 242 241 242 242 241 240 239 239 239 240 240 240 240 239 239 241 244 247 249 251 253 255 256 256 256 258 260 261 261 262 262 263 263 262 260 257 253 249 244 240 238 237 235 234 233 234 235 235 235 235 234 233 231 232 231 230 230 230 230
257 250 240 235 234 234 236 237 238 238 239 240 241 240 240 239 237 236 235 234 234 233 233 233 234 237 242 245 248 250 251 253 253 253 252 252 253 253 254 255 255 256 257 257 255 253 249 245 239 234 232 231 231 229 229 229 230 230 231 232 232 232 232 233 234 233 233 233 233
259 251 242 235 231 230 231 232 234 236 238 239 242 242 241 240 237 235 233 232 230 228 227 228 230 234 238 243 246 249 251 252 252 252 251 250 249 249 248 248 248 250 251 251 250 247 244 239 234 228 223 221 221 222 223 223 223 224 225 227 228 229 230 233 234 235 235 234 233
261 254 247 239 232 229 230 232 234 235 237 240 244 245 245 243 240 236 233 231 230 228 228 228 230 232 237 241 245 248 250 251 252 251 251 250 248 247 245 243 242 244 246 247 246 242 238 233 229 223 218 214 213 214 216 217 217 219 221 223 225 227 230 233 235 235 235 234 233
262 257 251 243 236 231 231 233 235 236 237 240 244 247 248 247 244 239 235 233 231 231 231 232 232 234 237 240 243 246 247 248 249 249 249 249 249 246 243 240 239 240 243 245 243 238 233 228 225 221 216 212 211 211 212 212 213 216 220 223 226 228 230 232 233 233 232 230 228
260 258 253 247 242 238 236 236 237 238 238 239 241 243 246 248 249 247 242 239 236 234 233 234 235 237 239 240 241 242 243 244 244 246 246 246 246 245 243 240 238 238 239 241 239 234 227 222 220 217 214 212 211 210 210 209 210 215 220 224 225 224 224 223 223 222 220 218 216
255 253 251 248 245 243 241 241 241 241 240 239 238 239 242 247 250 252 251 247 243 240 236 235 235 237 238 239 240 240 240 240 241 242 242 243 242 242 241 239 236 235 235 235 233 228 221 215 212 210 209 209 209 209 208 207 207 212 218 220 216 211 207 205 205 205 204 201 198
252 248 245 244 243 243 243 244 246 245 245 242 238 237 239 245 250 255 256 254 251 246 241 236 234 235 236 237 238 238 238 238 239 239 239 239 238 238 237 236 234 231 230 229 227 224 218 212 207 205 204 205 207 208 208 207 205 208 211 211 205 198 193 192 195 196 195 190 185
250 245 242 239 237 236 238 241 245 248 249 247 243 239 238 244 250 255 258 258 254 249 242 236 232 231 233 235 237 237 237 237 237 238 238 237 237 236 235 234 232 229 226 224 223 221 218 214 210 207 205 205 205 206 206 205 203 203 202 201 196 191 188 188 189 190 189 185 180
250 245 241 237 234 232 233 235 240 244 248 250 246 241 238 241 246 252 255 256 253 248 242 236 231 228 229 232 235 238 238 236 237 238 238 237 237 236 234 233 230 227 224 222 220 219 219 217 214 211 209 207 205 205 204 203 200 198 196 194 191 189 187 186 185 185 183 181 178
249 245 240 238 235 232 231 232 234 238 244 248 248 244 240 238 240 245 249 250 248 245 240 235 229 226 226 229 233 236 236 236 237 237 238 238 237 235 233 231 229 226 223 221 219 219 218 218 216 213 211 208 206 204 203 201 199 196 194 192 190 189 187 185 182 181 180 179 178
248 245 241 239 237 235 233 231 231 233 238 243 245 245 243 240 238 239 240 242 242 241 238 233 228 224 223 224 227 231 233 234 236 237 238 237 236 234 231 229 227 224 222 219 217 217 217 217 216 213 210 207 205 203 201 199 197 195 193 192 191 189 187 184 182 180 180 179 178
247 245 242 240 239 237 236 234 232 232 234 237 241 243 243 242 240 237 236 236 234 233 232 230 227 224 222 221 223 226 228 231 233 234 235 234 232 230 227 224 222 219 217 215 214 214 213 214 212 210 207 203 202 200 197 195 193 191 190 190 190 190 188 185 183 182 181 180 178
246 244 243 241 240 239 238 237 235 234 233 234 237 239 241 242 240 238 235 232 230 228 226 225 224 223 222 222 222 223 224 226 228 229 230 229 226 223 220 217 215 213 212 211 211 211 210 208 205 202 200 198 197 195 192 189 187 186 186 187 187 187 187 186 185 184 183 181 179
244 244 243 242 241 239 239 239 237 236 234 232 233 235 237 239 239 238 235 233 232 230 227 224 222 221 223 224 224 223 223 222 223 223 223 221 219 216 212 209 207 207 206 206 205 205 204 203 199 196 193 191 190 188 185 183 183 182 183 183 183 183 183 184 185 185 184 183 180
243 243 242 242 241 240 239 239 238 237 235 233 231 232 234 236 237 237 236 236 236 235 234 230 227 225 225 227 227 225 223 222 220 219 216 213 210 207 204 202 200 200 199 198 196 195 195 194 192 190 187 185 182 179 177 177 178 178 179 179 179 179 179 181 183 184 184 182 179
242 241 241 241 240 239 239 238 238 237 236 234 232 230 231 233 235 236 237 238 239 239 238 237 234 232 228 226 226 226 225 222 220 216 213 209 203 199 196 195 195 194 192 190 188 186 186 185 185 183 182 179 176 174 172 171 172 173 174 175 175 176 177 177 179 181 181 179 177
241 240 240 240 239 239 238 238 238 238 237 236 233 231 230 231 232 235 237 239 240 241 240 240 238 235 230 226 226 225 224 222 220 216 212 206 200 195 192 191 191 190 188 185 183 181 179 177 177 177 176 175 173 170 168 167 167 168 169 170 172 172 172 173 173 175 176 175 174
239 239 239 238 238 238 238 238 238 238 238 237 235 232 230 230 231 233 236 239 241 242 241 239 237 235 233 231 228 226 223 222 220 217 212 206 199 194 191 190 190 189 186 183 180 178 175 173 173 173 173 173 171 169 166 165 164 163 163 165 166 167 167 167 166 167 169 170 171
238 238 238 238 237 237 237 237 238 238 238 238 237 234 232 231 231 232 235 237 239 241 242 241 238 236 235 233 232 228 225 221 219 217 213 208 202 196 193 192 191 191 188 183 179 176 174 172 171 172 172 172 171 169 167 164 163 162 161 161 162 163 163 161 161 161 163 165 167
237 237 237 237 236 236 236 237 237 237 238 238 238 236 235 233 232 232 233 235 237 240 242 243 242 239 237 236 235 232 227 222 218 216 214 211 206 201 197 195 194 194 191 185 181 178 176 173 172 173 174 174 173 171 169 167 166 164 162 162 162 162 161 159 158 158 160 163 165
235 236 236 236 235 235 235 236 236 237 237 238 238 237 237 235 234 233 234 235 237 239 242 243 243 243 240 238 236 233 229 224 220 216 215 213 210 207 202 199 197 196 193 185 184 184 182 177 175 175 175 176 176 175 174 172 170 168 167 166 165 164 163 161 160 160 161 163 164
234 235 235 235 235 234 234 235 236 236 237 237 237 238 237 237 236 235 235 236 238 240 241 242 242 242 240 237 234 232 229 226 222 218 216 215 213 211 207 203 200 199 193 183 184 191 193 185 181 178 178 179 179 179 178 177 175 174 173 172 171 170 168 166 165 164 165 165 166
233 234 234 235 234 234 234 234 235 236 237 237 237 238 238 238 237 237 237 238 239 240 240 241 241 241 240 238 235 232 230 229 226 222 219 216 215 213 211 207 203 201 194 182 182 195 205 199 190 184 182 182 182 183 182 182 182 181 180 179 177 176 175 173 172 171 170 170 170
232 233 234 234 234 234 234 234 235 236 237 237 238 238 238 238 239 239 238 238 239 239 240 241 242 241 241 240 238 235 233 231 229 226 222 218 216 214 212 210 207 204 196 184 179 190 207 212 205 194 187 185 185 186 186 187 187 187 187 186 184 183 182 180 179 178 177 176 176
231 232 233 233 234 234 234 234 235 236 237 238 238 239 239 240 240 239 239 239 239 239 240 241 242 242 242 242 241 239 236 234 231 229 225 221 218 216 214 212 210 207 200 188 180 186 203 216 214 203 192 188 188 189 190 191 192 193 193 192 191 190 188 187 186 185 184 183 183
230 231 232 232 233 234 234 235 236 236 238 238 239 240 240 240 240 240 240 240 240 240 241 242 243 244 244 244 242 241 239 236 233 230 227 224 221 218 215 214 212 209 204 194 185 186 198 211 215 209 200 193 193 194 194 194 195 197 198 198 197 196 195 193 193 192 191 190 190
230 230 231 232 232 233 234 235 236 237 238 239 239 239 240 241 241 241 242 242 241 241 241 242 244 245 246 245 244 243 242 239 235 232 229 226 223 219 217 215 213 211 208 201 191 188 195 208 215 213 207 202 200 199 198 197 198 200 202 203 203 202 201 199 198 198 197 197 197
230 230 231 231 232 233 234 235 236 237 238 238 239 239 240 241 241 242 242 242 242 241 241 241 242 244 245 245 244 243 243 241 238 234 230 227 224 221 218 216 214 212 210 206 198 192 195 208 216 216 212 209 207 205 202 201 201 203 205 207 207 207 206 204 203 202 202 202 202
231 230 230 231 231 232 233 234 235 237 237 238 238 239 240 240 241 242 242 242 242 241 241 240 240 241 243 244 243 242 242 242 240 236 232 228 225 222 220 217 214 213 212 210 204 198 197 207 217 218 214 211 210 208 206 204 204 205 206 208 210 210 209 208 207 207 206 206 206
Height
1478 1478 1479 1480 1480 1480 1481 1481 1482 1482 1482 1482 1483 1483 1483 1483 1483 1483 1484 1484 1485 1485 1485 1485 1486 1486 1486 1487 1487 1488 1488 1489 1489 1490 1490 1491 1492 1493 1494 1495 1495 1496 1497 1498 1498 1499 1500 1500 1501 1501 1502 1502 1503 1503 1504 1504 1505 1506 1507 1508 1508 1509 1510 1511 1512 1512 1513 1514 1515
1477 1478 1479 1479 1480 1480 1481 1481 1482 1482 1482 1482 1482 1483 1483 1483 1483 1483 1483 1484 1484 1484 1485 1485 1485 1485 1486 1487 1487 1487 1488 1488 1488 1489 1489 1490 1490 1491 1492 1493 1494 1495 1495 1496 1497 1497 1498 1498 1499 1499 1500 1500 1501 1501 1502 1502 1503 1504 1505 1506 1507 1508 1509 1510 1510 1511 1512 1513 1513
1477 1477 1478 1479 1479 1480 1480 1481 1481 1482 1482 1482 1482 1483 1483 1483 1483 1483 1483 1483 1484 1484 1484 1485 1485 1485 1486 1486 1487 1487 1487 1487 1487 1488 1488 1489 1489 1490 1490 1491 1492 1493 1494 1495 1495 1496 1496 1497 1497 1498 1498 1498 1499 1500 1500 1501 1502 1503 1504 1505 1505 1506 1507 1508 1509 1510 1511 1511 1512
1476 1477 1477 1478 1479 1479 1480 1480 1481 1481 1482 1482 1482 1483 1483 1483 1483 1483 1483 1483 1483 1484 1484 1484 1484 1485 1485 1485 1486 1486 1486 1486 1486 1486 1487 1487 1488 1489 1490 1490 1491 1492 1493 1494 1494 1495 1495 1496 1496 1496 1497 1497 1498 1498 1499 1500 1500 1501 1502 1503 1504 1505 1506 1507 1508 1508 1509 1510 1511
1476 1476 1477 1477 1478 1479 1479 1480 1480 1481 1481 1482 1482 1482 1482 1483 1483 1483 1483 1483 1483 1483 1483 1484 1484 1484 1484 1485 1485 1485 1485 1485 1485 1485 1485 1486 1486 1487 1488 1489 1490 1491 1492 1492 1493 1494 1494 1495 1495 1495 1495 1496 1497 1497 1498 1499 1499 1500 1501 1502 1503 1504 1504 1505 1506 1507 1508 1509 1509
1475 1476 1476 1477 1478 1478 1479 1479 1480 1480 1481 1481 1481 1482 1482 1482 1482 1483 1483 1483 1483 1483 1483 1483 1483 1483 1483 1483 1484 1484 1484 1484 1484 1484 1484 1485 1485 1486 1487 1488 1489 1490 1491 1491 1492 1492 1493 1493 1494 1494 1495 1495 1495 1496 1497 1498 1498 1499 1500 1500 1501 1502 1503 1504 1505 1505 1506 1507 1508
1475 1475 1476 1476 1477 1477 1478 1478 1479 1479 1480 1480 1480 1481 1481 1481 1481 1482 1482 1482 1482 1483 1483 1483 1483 1483 1483 1483 1483 1483 1483 1483 1483 1483 1484 1484 1485 1485 1486 1488 1489 1489 1490 1490 1491 1491 1492 1492 1493 1493 1493 1494 1495 1495 1496 1496 1497 1498 1499 1500 1500 1501 1502 1503 1504 1505 1505 1506 1506
1474 1475 1475 1476 1476 1477 1477 1477 1478 1478 1479 1479 1480 1480 1480 1480 1480 1480 1481 1481 1481 1481 1482 1482 1482 1482 1482 1482 1482 1482 1482 1482 1482 1482 1483 1483 1484 1485 1486 1487 1488 1488 1489 1489 1490 1490 1490 1491 1491 1492 1492 1493 1493 1494 1495 1495 1496 1497 1498 1498 1499 1500 1501 1502 1503 1503 1504 1505 1505
1473 1474 1475 1475 1475 1476 1476 1477 1477 1477 1478 1478 1478 1479 1479 1479 1479 1479 1480 1480 1480 1480 1480 1480 1481 1481 1481 1481 1481 1481 1481 1481 1482 1482 1482 1483 1484 1485 1485 1486 1486 1487 1487 1488 1488 1489 1489 1490 1490 1490 1491 1491 1492 1492 1493 1494 1495 1495 1496 1497 1498 1499 1500 1501 1502 1502 1503 1504 1504
1472 1473 1474 1474 1475 1475 1475 1476 1476 1476 1476 1477 1477 1477 1478 1478 1478 1478 1478 1479 1479 1479 1479 1479 1480 1480 1480 1480 1480 1481 1481 1481 1481 1482 1482 1482 1483 1483 1484 1484 1485 1485 1486 1486 1487 1487 1488 1488 1488 1489 1489 1490 1490 1491 1491 1492 1493 1494 1495 1496 1497 1498 1499 1500 1500 1501 1502 1502 1503
1472 1472 1473 1473 1474 1474 1475 1475 1475 1475 1475 1476 1476 1476 1476 1477 1477 1477 1477 1477 1478 1478 1478 1478 1479 1479 1479 1480 1480 1480 1480 1481 1481 1481 1481 1482 1482 1482 1482 1482 1483 1484 1485 1485 1485 1486 1486 1486 1487 1487 1487 1488 1489 1490 1490 1491 1491 1492 1493 1494 1495 1496 1497 1498 1499 1500 1500 1501 1502
1471 1471 1472 1472 1473 1474 1474 1474 1474 1475 1475 1475 1475 1475 1475 1475 1476 1476 1476 1476 1477 1477 1477 1477 1478 1478 1478 1479 1479 1479 1480 1480 1480 1480 1480 1480 1480 1481 1481 1482 1482 1483 1484 1484 1484 1485 1485 1485 1485 1485 1486 1486 1487 1488 1489 1489 1490 1491 1492 1493 1494 1495 1495 1496 1497 1498 1499 1500 1501
1470 1471 1471 1472 1472 1473 1473 1473 1474 1474 1474 1474 1474 1474 1475 1475 1475 1475 1475 1475 1475 1476 1476 1476 1477 1477 1477 1478 1478 1478 1479 1479 1479 1479 1480 1480 1480 1480 1480 1481 1482 1483 1483 1483 1483 1484 1484 1484 1484 1484 1485 1485 1486 1486 1487 1488 1489 1489 1490 1491 1492 1493 1494 1495 1496 1497 1498 1498 1499
1470 1470 1470 1470 1471 1472 1472 1472 1473 1473 1473 1473 1473 1474 1474 1474 1474 1474 1474 1474 1475 1475 1475 1475 1476 1476 1476 1477 1477 1477 1478 1478 1478 1478 1479 1479 1479 1480 1480 1481 1481 1482 1482 1482 1483 1483 1483 1483 1483 1483 1484 1484 1485 1485 1486 1487 1487 1488 1489 1490 1490 1491 1492 1493 1494 1495 1496 1497 1498
1469 1469 1470 1470 1470 1471 1471 1471 1472 1472 1472 1472 1473 1473 1473 1473 1473 1473 1473 1473 1474 1474 1474 1474 1475 1475 1475 1476 1476 1476 1477 1477 1477 1478 1478 1478 1479 1479 1480 1480 1481 1481 1482 1482 1482 1482 1482 1482 1482 1482 1483 1483 1484 1484 1485 1485 1486 1487 1488 1488 1489 1490 1491 1492 1493 1494 1495 1495 1496
1469 1469 1469 1469 1469 1470 1470 1470 1471 1471 1471 1472 1472 1472 1472 1472 1472 1472 1472 1472 1473 1473 1473 1474 1474 1474 1475 1475 1475 1475 1476 1476 1477 1477 1477 1478 1478 1479 1479 1480 1480 1481 1481 1481 1481 1481 1481 1482 1482 1482 1482 1483 1483 1484 1484 1485 1485 1486 1486 1487 1488 1489 1490 1491 1492 1493 1494 1494 1495
1468 1468 1468 1468 1468 1469 1469 1470 1470 1470 1470 1471 1471 1471 1471 1471 1471 1471 1472 1472 1472 1472 1472 1473 1473 1473 1474 1474 1475 1475 1475 1475 1476 1476 1477 1477 1478 1478 1479 1479 1480 1480 1480 1481 1481 1481 1481 1481 1481 1482 1482 1482 1483 1483 1483 1484 1484 1485 1485 1486 1487 1488 1489 1490 1491 1492 1493 1494 1494
1467 1467 1468 1468 1468 1468 1468 1468 1469 1469 1470 1470 1470 1470 1471 1471 1471 1471 1471 1471 1471 1471 1471 1472 1472 1472 1473 1473 1474 1474 1475 1475 1475 1476 1476 1476 1477 1478 1478 1479 1479 1480 1480 1480 1480 1481 1481 1481 1481 1481 1482 1482 1482 1482 1483 1483 1483 1484 1484 1485 1486 1487 1488 1489 1490 1491 1492 1493 1493
1467 1467 1467 1467 1467 1467 1467 1468 1468 1468 1469 1469 1470 1470 1470 1470 1470 1470 1470 1470 1470 1471 1471 1471 1471 1472 1472 1473 1473 1474 1474 1474 1475 1475 1475 1476 1477 1477 1478 1478 1479 1479 1479 1480 1480 1480 1480 1480 1481 1481 1481 1481 1482 1482 1482 1482 1483 1483 1484 1485 1485 1486 1487 1488 1489 1490 1491 1492 1492
1466 1466 1466 1466 1466 1466 1467 1467 1467 1467 1468 1468 1469 1469 1469 1469 1470 1470 1470 1470 1470 1470 1470 1470 1471 1471 1471 1472 1472 1473 1473 1474 1474 1475 1475 1475 1476 1476 1477 1477 1478 1478 1479 1479 1479 1480 1480 1480 1480 1480 1481 1481 1481 1481 1482 1482 1482 1483 1483 1484 1485 1485 1486 1487 1488 1489 1490 1491 1492
1465 1465 1465 1465 1466 1466 1466 1466 1466 1467 1467 1467 1468 1468 1469 1469 1469 1469 1469 1469 1470 1470 1470 1470 1470 1470 1471 1471 1472 1472 1473 1473 1474 1474 1475 1475 1475 1476 1476 1477 1477 1477 1478 1478 1479 1479 1479 1480 1480 1480 1480 1480 1481 1481 1481 1482 1482 1483 1483 1484 1485 1485 1486 1487 1488 1489 1490 1490 1491
1464 1464 1465 1465 1465 1465 1465 1465 1466 1466 1466 1467 1467 1467 1468 1468 1468 1469 1469 1469 1469 1470 1470 1470 1470 1470 1470 1471 1471 1472 1472 1473 1473 1473 1474 1474 1475 1475 1475 1476 1476 1477 1477 1477 1478 1478 1478 1479 1479 1480 1480 1480 1480 1480 1481 1481 1482 1482 1483 1484 1485 1485 1486 1486 1487 1488 1489 1490 1490
1463 1463 1463 1464 1464 1464 1465 1465 1465 1465 1466 1466 1466 1467 1467 1468 1468 1468 1468 1469 1469 1469 1470 1470 1470 1470 1470 1471 1471 1471 1472 1472 1472 1473 1473 1474 1474 1474 1475 1475 1475 1476 1476 1477 1477 1477 1478 1478 1478 1479 1479 1479 1480 1480 1481 1481 1482 1482 1483 1484 1484 1485 1486 1486 1487 1488 1489 1489 1490
1462 1462 1462 1463 1463 1463 1464 1464 1465 1465 1465 1465 1466 1466 1467 1467 1467 1467 1468 1468 1468 1469 1469 1470 1470 1470 1470 1470 1471 1471 1471 1471 1472 1472 1473 1473 1473 1474 1474 1474 1475 1475 1475 1476 1476 1476 1477 1477 1477 1478 1478 1479 1479 1480 1480 1481 1481 1482 1483 1483 1484 1485 1485 1486 1487 1487 1488 1489 1490
1460 1461 1461 1461 1462 1462 1463 1463 1464 1464 1464 1465 1465 1465 1466 1466 1467 1467 1467 1467 1468 1468 1469 1469 1469 1470 1470 1470 1470 1471 1471 1471 1471 1472 1472 1473 1473 1473 1473 1474 1474 1475 1475 1475 1475 1475 1476 1476 1476 1477 1477 1478 1479 1479 1480 1480 1481 1482 1482 1483 1484 1484 1485 1486 1486 1487 1488 1488 1489
1459 1460 1460 1460 1461 1461 1462 1462 1463 1463 1464 1464 1464 1465 1465 1465 1466 1466 1466 1467 1467 1467 1468 1468 1469 1469 1470 1470 1470 1470 1470 1471 1471 1471 1472 1472 1472 1473 1473 1473 1473 1474 1474 1474 1475 1475 1475 1475 1476 1476 1477 1477 1478 1479 1479 1480 1480 1481 1482 1483 1483 1484 1485 1485 1486 1487 1487 1488 1489
1458 1459 1459 1459 1460 1460 1461 1461 1462 1462 1463 1463 1463 1464 1464 1465 1465 1465 1466 1466 1466 1466 1467 1467 1468 1468 1469 1469 1470 1470 1470 1470 1471 1471 1471 1472 1472 1472 1472 1472 1473 1473 1473 1474 1474 1475 1475 1475 1475 1476 1476 1477 1478 1478 1479 1480 1480 1481 1482 1482 1483 1484 1484 1485 1485 1486 1487 1488 1488
1457 1457 1458 1458 1459 1459 1460 1460 1461 1461 1462 1462 1463 1463 1464 1464 1464 1465 1465 1465 1465 1466 1466 1466 1467 1467 1468 1468 1469 1469 1470 1470 1470 1470 1471 1471 1471 1471 1471 1472 1472 1472 1473 1473 1474 1474 1475 1475 1475 1476 1476 1477 1477 1478 1479 1479 1480 1481 1481 1482 1483 1483 1484 1485 1485 1486 1487 1487 1488
1455 1456 1456 1457 1457 1458 1459 1459 1460 1460 1461 1461 1462 1462 1463 1463 1464 1464 1464 1465 1465 1465 1465 1466 1466 1467 1467 1467 1468 1469 1469 1469 1470 1470 1470 1470 1470 1471 1471 1471 1471 1472 1472 1473 1473 1474 1474 1475 1475 1475 1476 1477 1477 1478 1479 1479 1480 1480 1481 1482 1482 1483 1483 1484 1485 1485 1486 1487 1488
1454 1455 1455 1456 1456 1457 1457 1458 1459 1460 1460 1460 1461 1461 1461 1462 1462 1463 1463 1464 1464 1465 1465 1465 1465 1466 1466 1467 1467 1468 1468 1469 1469 1470 1470 1470 1470 1470 1470 1471 1471 1471 1472 1473 1473 1473 1474 1474 1475 1475 1476 1476 1477 1478 1478 1479 1480 1480 1481 1481 1482 1482 1483 1484 1484 1485 1486 1487 1488
1453 1453 1454 1454 1455 1455 1456 1457 1458 1458 1459 1459 1460 1460 1460 1461 1461 1462 1463 1463 1464 1464 1464 1465 1465 1465 1465 1466 1466 1466 1467 1468 1468 1469 1469 1469 1470 1470 1470 1470 1470 1471 1471 1472 1473 1473 1474 1474 1475 1475 1476 1476 1477 1477 1478 1479 1479 1480 1480 1481 1481 1482 1483 1483 1484 1485 1486 1487 1488
1451 1452 1452 1453 1454 1454 1455 1456 1456 1457 1458 1458 1459 1459 1460 1460 1460 1461 1462 1462 1463 1463 1463 1464 1464 1465 1465 1465 1465 1465 1466 1467 1467 1468 1468 1469 1469 1469 1470 1470 1470 1470 1471 1472 1472 1473 1473 1474 1474 1475 1475 1476 1477 1477 1478 1478 1479 1479 1480 1480 1481 1482 1482 1483 1484 1485 1485 1486 1487
1450 1450 1451 1452 1452 1453 1454 1454 1455 1456 1456 1457 1458 1458 1459 1459 1460 1460 1460 1461 1462 1462 1463 1463 1463 1464 1464 1464 1465 1465 1465 1465 1466 1467 1467 1468 1468 1469 1469 1469 1470 1470 1470 1471 1472 1472 1473 1473 1474 1475 1475 1476 1476 1477 1477 1478 1479 1479 1480 1480 1481 1481 1482 1483 1484 1484 1485 1486 1487
1448 1449 1450 1450 1451 1452 1452 1453 1454 1454 1455 1456 1456 1457 1458 1458 1459 1459 1460 1460 1460 1461 1462 1462 1463 1463 1463 1464 1464 1464 1464 1465 1465 1466 1466 1467 1468 1468 1469 1469 1469 1470 1470 1470 1472 1472 1472 1473 1474 1474 1475 1475 1476 1477 1477 1478 1478 1479 1480 1480 1481 1481 1482 1483 1483 1484 1485 1486 1487
1446 1447 1448 1449 1450 1450 1451 1452 1452 1453 1454 1454 1455 1456 1456 1457 1458 1458 1459 1459 1460 1460 1461 1461 1462 1462 1462 1463 1463 1463 1464 1464 1464 1465 1465 1466 1467 1467 1468 1468 1469 1469 1470 1470 1471 1472 1472 1472 1473 1474 1475 1475 1476 1476 1477 1478 1478 1479 1480 1480 1480 1481 1482 1483 1483 1484 1485 1485 1486
1445 1446 1446 1447 1448 1449 1450 1450 1451 1451 1452 1453 1454 1455 1455 1456 1457 1457 1458 1458 1459 1459 1460 1460 1461 1461 1462 1462 1462 1463 1463 1463 1463 1464 1465 1465 1466 1466 1467 1468 1468 1469 1469 1470 1471 1472 1472 1472 1472 1473 1474 1475 1475 1476 1477 1478 1478 1479 1479 1480 1480 1481 1482 1482 1483 1484 1485 1485 1486
1443 1444 1445 1446 1446 1447 1448 1449 1449 1450 1451 1452 1452 1453 1454 1455 1456 1456 1457 1457 1458 1458 1459 1459 1460 1460 1461 1461 1461 1462 1462 1462 1463 1463 1464 1464 1465 1466 1466 1467 1468 1468 1469 1469 1470 1471 1472 1472 1472 1473 1473 1475 1475 1476 1476 1477 1478 1478 1479 1480 1480 1481 1481 1482 1483 1483 1484 1485 1486
1442 1443 1443 1444 1445 1445 1446 1447 1448 1448 1449 1450 1451 1452 1453 1454 1455 1455 1455 1456 1456 1457 1458 1458 1459 1459 1460 1460 1461 1461 1461 1461 1462 1462 1463 1463 1464 1465 1465 1466 1467 1468 1468 1469 1469 1471 1472 1472 1472 1472 1473 1474 1475 1475 1476 1477 1477 1478 1479 1479 1480 1480 1481 1481 1482 1483 1484 1485 1485
1440 1441 1442 1442 1443 1444 1445 1445 1446 1447 1448 1449 1450 1451 1452 1452 1453 1454 1455 1455 1455 1456 1457 1457 1458 1458 1459 1459 1460 1460 1460 1460 1461 1461 1462 1462 1463 1464 1465 1465 1466 1467 1468 1468 1469 1470 1471 1472 1471 1471 1472 1473 1474 1475 1475 1476 1477 1477 1478 1479 1479 1480 1480 1481 1482 1483 1483 1484 1485
1438 1439 1440 1441 1442 1442 1443 1444 1445 1446 1447 1448 1449 1450 1450 1451 1452 1453 1453 1454 1455 1455 1455 1456 1457 1457 1458 1458 1459 1459 1460 1460 1460 1460 1461 1461 1462 1463 1464 1465 1465 1466 1467 1468 1468 1469 1470 1471 1471 1471 1472 1473 1474 1474 1475 1475 1476 1477 1477 1478 1479 1479 1480 1481 1481 1482 1483 1484 1485
1437 1437 1438 1439 1440 1441 1441 1442 1443 1445 1445 1446 1447 1448 1449 1450 1450 1451 1452 1452 1453 1454 1454 1455 1455 1456 1457 1457 1458 1458 1459 1459 1459 1460 1460 1460 1461 1462 1463 1464 1465 1465 1466 1467 1467 1468 1469 1470 1470 1470 1471 1472 1473 1474 1474 1475 1475 1476 1477 1477 1478 1479 1480 1480 1481 1482 1483 1483 1484